Home   Weather   Bălți   Past weeks

Flag for Moldova Past Weather in Bălți, Moldova — Yesterday and Last 2 Weeks

Now
34 °F

Light snow. Overcast.


Feels Like: 27 °F
Forecast: 27 / 41 °F
Wind: 8 mph from East

Location: Iasi Airport

Current Time: Feb 20, 2017 at 6:08:58 am

Latest Report: Feb 20, 2017 at 5:30 am


Visibility: 3 mi

Pressure: 30.15 "Hg

Humidity: 81%

Dew Point: 28 °F

Location of BălțiLocation

Past Weather in Bălți — Graph

°F

Bălți Temperature Yesterday

Maximum temperature yesterday: 39 °F (at 10:30 am)
Minimum temperature yesterday: 30 °F (at 7:00 am)
Average temperature yesterday: 34 °F

High & Low Weather Summary for the Past Weeks

 TemperatureHumidityPressure
High39 °F (Feb 19, 10:30 am)100% (Feb 5, 9:00 pm)30.74 "Hg (Feb 5, 9:00 pm)
Low-4 °F (Feb 10, 7:30 am)45% (Feb 9, 4:00 pm)29.74 "Hg (Feb 5, 2:00 pm)
Average24 °F78%30.37 "Hg
* Reported Feb 5 5:00 am — Feb 20 5:00 am, Bălți, Weather by CustomWeather, © 2017

Note: Actual official high and low records may vary slightly from our data, if they occured in-between our weather recording intervals... More about our weather records

Advertising

Bălți Weather History for the Previous 24 Hours

Scroll right to see more
 ConditionsComfort  
Time TempWeatherWind HumidityBarometerVisibility
5:00 am
Mon, Feb 20
34 °FLight snow. Passing clouds.9 mph81%30.15 "Hg4 mi
4:30 am34 °FLight snow. Passing clouds.8 mph81%30.15 "Hg4 mi
4:00 am34 °FOvercast.8 mph81%30.15 "Hg4 mi
3:30 am34 °FOvercast.8 mph81%30.15 "Hg4 mi
3:00 am34 °FOvercast.9 mph81%30.18 "Hg4 mi
2:30 am34 °FOvercast.9 mph81%30.18 "Hg4 mi
1:30 am34 °FPartly cloudy.9 mph81%30.18 "Hg6 mi
12:30 am36 °FOvercast.6 mph75%30.21 "HgN/A
12:00 am36 °FOvercast.6 mph75%30.21 "HgN/A
11:30 pm
Sun, Feb 19
36 °FOvercast.7 mph75%30.21 "HgN/A
11:00 pm34 °FOvercast.7 mph81%30.21 "HgN/A
10:30 pm32 °FPassing clouds.8 mph80%30.21 "HgN/A
10:00 pm32 °FPassing clouds.7 mph75%30.24 "HgN/A
9:30 pm30 °FPassing clouds.7 mph80%30.24 "HgN/A
9:00 pm32 °FClear.8 mph80%30.24 "Hg10 mi
8:30 pm34 °FClear.7 mph75%30.24 "Hg10 mi
8:00 pm34 °FClear.7 mph75%30.24 "Hg10 mi
7:30 pm34 °FClear.9 mph75%30.24 "Hg10 mi
7:00 pm34 °FClear.7 mph75%30.24 "Hg10 mi
6:30 pm36 °FClear.6 mph70%30.24 "Hg10 mi
6:00 pm36 °FClear.7 mph75%30.24 "Hg10 mi
5:30 pm36 °FSunny.6 mph75%30.24 "Hg10 mi
5:00 pm36 °FSunny.8 mph75%30.27 "Hg10 mi
4:30 pm37 °FSunny.9 mph70%30.27 "Hg10 mi
4:00 pm37 °FSunny.9 mph70%30.27 "Hg10 mi
3:30 pm39 °FSunny.10 mph65%30.27 "Hg10 mi
3:00 pm39 °FSunny.8 mph65%30.27 "Hg10 mi
2:30 pm39 °FSunny.7 mph65%30.30 "Hg10 mi
2:00 pm39 °FSunny.7 mph65%30.30 "Hg10 mi
1:30 pm37 °FClear.5 mph75%30.30 "Hg5 mi
1:00 pm37 °FFog.2 mph75%30.33 "Hg2 mi
12:30 pm36 °FFog.5 mph81%30.33 "Hg2 mi
12:00 pm36 °FFog.5 mph81%30.33 "Hg2 mi
11:30 am34 °FFog.5 mph81%30.36 "Hg1 mi
11:00 am36 °FFog.3 mph75%30.36 "Hg2 mi
10:30 am39 °FFog.No wind70%30.36 "Hg2 mi
10:00 am36 °FFog.No wind81%30.36 "Hg2 mi
9:30 am32 °FFog.1 mph93%30.33 "Hg1 mi
9:00 am32 °FIce fog.1 mph87%30.36 "Hg1 mi
8:30 am30 °FIce fog.No wind93%30.33 "Hg0 mi
8:00 am32 °FIce fog.1 mph87%30.33 "Hg0 mi
7:30 am30 °FIce fog.1 mph93%30.33 "Hg0 mi
7:00 am30 °FIce fog.1 mph86%30.30 "Hg0 mi
6:30 am32 °FIce fog.2 mph87%30.30 "Hg1 mi
6:00 am32 °FIce fog.No wind87%30.30 "Hg1 mi
Weather by CustomWeather, © 2017

See weather overviewHow to use our weather pages